Western Neb. Rgnl/William B. Heilig Airport
KBFF : now visible

Airfield :











YOU CAN JOIN US ON...

 
LOGIN :

Register | Disclaimer

   EN    FR    IT 

 









Legend :    VFR   Marginal VFR   IFR   Intensive IFR   Very Intensive IFR
Visi :
Ceiling :
>= 8 km
>= 3000ft
5 to 8 km
1000 to 3000 ft
1500m to 5 km
500 to 1000 ft
800 to 1500m
200 to 500 ft
< 800m
< 200 ft
Symbols :   Thunderstorms  Fog  Heavy snow  Heavy precipitations  Wind > 20 kt






- Airport Elevation : 3967 ft
- IATA code : BFF


KBFF - Western Neb. Rgnl/William B. Heilig

CURRENT METAR :
  • 280353Z AUTO 32005KT 10SM CLR M01/M12 A3014 RMK AO2 SLP236 T10111122

EXPIRED METARs :
  • 280253Z AUTO 00000KT 10SM CLR M01/M13 A3014 RMK AO2 SLP245 T10111133 50002
  • 280153Z AUTO 34005KT 10SM CLR M03/M13 A3015 RMK AO2 SLP255 T10331133

TAF KBFF
Valid from the 28 at 00:00 until the 29 at 00:00 UTC


272321Z 2800/2824 29003KT P6SM FEW250
FM280500 32005KT P6SM SKC
KZDV FIR / North America



MET'MAP, your aeronautical weather chart ! - Copyright ORBIFLY December 2007 - Disclaimer

ORBIFLY MET'MAP TEAM :

Programming & Development : Alexandra Zaïnal
Concept & original design : Baudouin d'Aumeries
Assistance for programming : Marc-Olivier Méhu
Technical & hardware support : Manuel Goepfert

Contact : metmap@orbifly.com




SOURCES & CREDITS :

   NOAA       Earth
Advisory